This is the latest recevied weather packets stored in our database for station/object 9W2XPF-13. If no packets are shown the sender has not sent any weather packets the latest 10 day(s).
| Time | Temp. | Humidity | Pressure | Rain* | Wind** | Luminosity | Snow |
|---|---|---|---|---|---|---|---|
| 1777705562 | 32.78° C | 63% | 1006.3 hPa | 0 mm | - | - | - |
| 1777705442 | 32.78° C | 65% | 1006.5 hPa | 0 mm | - | - | - |
| 1777705322 | 32.78° C | 63% | 1006.4 hPa | 0 mm | - | - | - |
| 1777705202 | 32.78° C | 63% | 1006.4 hPa | 0 mm | - | - | - |
| 1777705082 | 32.78° C | 63% | 1006.6 hPa | 0 mm | - | - | - |
| 1777704962 | 32.78° C | 62% | 1006.7 hPa | 0 mm | - | - | - |
| 1777704842 | 32.78° C | 65% | 1006.6 hPa | 0 mm | - | - | - |
| 1777704722 | 32.78° C | 65% | 1006.8 hPa | 0 mm | - | - | - |
| 1777704602 | 32.78° C | 65% | 1006.8 hPa | 0 mm | - | - | - |
| 1777704482 | 32.22° C | 67% | 1006.8 hPa | 0 mm | - | - | - |
| 1777704362 | 32.22° C | 68% | 1006.8 hPa | 0 mm | - | - | - |
| 1777704242 | 32.22° C | 67% | 1006.8 hPa | 0 mm | - | - | - |
| 1777704122 | 32.22° C | 67% | 1006.8 hPa | 0 mm | - | - | - |
| 1777704002 | 32.22° C | 66% | 1006.9 hPa | 0 mm | - | - | - |
| 1777703882 | 32.22° C | 67% | 1007.1 hPa | 0 mm | - | - | - |
| 1777703762 | 32.22° C | 68% | 1007 hPa | 0 mm | - | - | - |
| 1777703642 | 32.22° C | 69% | 1007.3 hPa | 0 mm | - | - | - |
| 1777703522 | 32.22° C | 71% | 1007.1 hPa | 0 mm | - | - | - |
| 1777703402 | 31.67° C | 70% | 1007.2 hPa | 0 mm | - | - | - |
| 1777703282 | 31.67° C | 69% | 1007 hPa | 0 mm | - | - | - |
| 1777703162 | 31.11° C | 69% | 1007.1 hPa | 0 mm | - | - | - |
| 1777703042 | 31.11° C | 69% | 1007 hPa | 0 mm | - | - | - |
| 1777702922 | 31.11° C | 70% | 1007.2 hPa | 0 mm | - | - | - |
| 1777702802 | 31.11° C | 71% | 1007.1 hPa | 0 mm | - | - | - |
| 1777702682 | 31.11° C | 74% | 1007.2 hPa | 0 mm | - | - | - |
* Rain latest hour (hover to see other rain measurements)
** Current wind speed in m/s (hover to see current wind gust speed)